Regional Weather Roundup
Issued by NWS Northern Indiana

Home | Current Version | Previous Version | Graphics & Text | Print | Product List | Glossary On
Versions: 1 2 3 4 5 6 7 8 9 10 11 12 13 14 15 16 17 18 19 20 21 22 23 24 25 26 27 28 29 30 31 32 33 34 35 36 37 38 39 40 41 42 43 44 45 46 47 48 49 50
560
ASUS43 KIWX 232210
RWRIWX

KIWX WEATHER ROUNDUP
NATIONAL WEATHER SERVICE NORTHERN INDIANA
500 PM EST MON JAN 23 2017

NOTE: "FAIR" INDICATES FEW OR NO CLOUDS BELOW 12,000 FEET WITH NO
SIGNIFICANT WEATHER AND/OR OBSTRUCTIONS TO VISIBILITY.

* THESE STATIONS ARE NOT UNDER NWS QUALITY CONTROL. THEY ALSO MAY NOT
  REPORT WEATHER SUCH AS PRECIPITATION OR FOG.

INZ001>027-232300-
NORTHERN INDIANA

CITY           SKY/WX    TMP DP  RH WIND       PRES   REMARKS
GARY*          MOCLDY    41  36  81 N12       29.75R
VALPARAISO     CLOUDY    39  37  92 VRB6      29.73S
LAPORTE*       CLOUDY    38  37  95 N12       29.73R
KNOX*          CLOUDY    37  27  65 NW10      29.72R
SOUTH BEND     CLOUDY    38  38 100 N16       29.70F
ELKHART*       CLOUDY    39  37  93 N13       29.69S FOG
GOSHEN         CLOUDY    41  38  89 NW12      29.68R FOG
ROCHESTER*     CLOUDY    41  41 100 N14G25    29.69S FOG
WARSAW*        CLOUDY    39  39 100 N7        29.68R FOG
FORT WAYNE     LGT RAIN  44  41  89 NW9       29.66R
PERU/GRISSOM   CLOUDY    40  40 100 NW14      29.66R
MARION*        CLOUDY    41  39  93 N13       29.66S FOG

$$
INZ028>050-232300-
CENTRAL INDIANA

CITY           SKY/WX    TMP DP  RH WIND       PRES   REMARKS
LAFAYETTE      CLOUDY    41  37  86 N9        29.71R
KOKOMO*        CLOUDY    41  40  96 NW13      29.68R FOG
MUNCIE*        CLOUDY    45  42  89 N15       29.64R
INDIANAPOLIS   CLOUDY    41  39  93 NW13      29.67R FOG

$$
MIZ043>046-050>051-056>058-064>065-071>073-077>080-232300-
SOUTHWEST LOWER MICHIGAN

CITY           SKY/WX    TMP DP  RH WIND       PRES   REMARKS
BATTLE CREEK   LGT RAIN  41  41 100 N9        29.68R FOG
BENTON HARBOR  CLOUDY    40  37  89 VRB7      29.72R
COLDWATER*     LGT RAIN  41  41 100 N5        29.67R
HILLSDALE*     RAIN      41  39  93 N6        29.64S
HOLLAND        CLOUDY    41  37  86 NW5       29.71S
GRAND RAPIDS   DRIZZLE   41  39  93 N8        29.70R FOG
KALAMAZOO      FOG       41  38  89 NW9       29.69R VSB 1
STURGIS*       DRZL/FOG  40  40 100 N10       29.67R VSB 1
THREE RIVERS*  CLOUDY    41  40  96 N9        29.69R FOG

$$
OHZ001>008-015>018-024>025-232300-
NORTHWEST OHIO

CITY           SKY/WX    TMP DP  RH WIND       PRES   REMARKS
DEFIANCE       LGT RAIN  43  41  93 NE8       29.65R FOG
FINDLAY        CLOUDY    40  37  89 N12       29.61R FOG
TOLEDO EXPRESS CLOUDY    43  43 100 NE6       29.64R FOG
TOLEDO METCALF CLOUDY    40  40 100 N5        29.66R FOG
LIMA           CLOUDY    39  39 100 N13       29.61R FOG

$$
AND FOR LAKE MICHIGAN COASTAL AND OPEN LAKE BUOY OBSERVATIONS

STATION/POSITION TEMP    WIND        PRES    VSBY  WAVE
                 AIR SEA DIR/SP/G                  HT/PER
                 (F)     (DEG/KT/KT) (MB)    (MI)  (FT/S)
CALUMET HARBOR    38     340/  7/ 10 1007.0R
MICHIGAN CITY     36     310/ 10/ 11   N/A
BURNS HARBOR      36     320/  5/  7 1008.1R

$$
&&




USA.gov is the U.S. government's official web portal to all federal, state and local government web resources and services.